sat.trackr.live / text

‹ back to catalog

STARLINK-31274

NORAD 59078 · 2024-041E

PAYLOAD ACTIVE UNKNOWN

§ Identity

Operator
Country
US
Launch date
2024-02-29
Launch site
AFETR
Launch vehicle
Mass (kg)
RCS (m²)

Purposes: comms

External: N2YO · Heavens-Above · Gunter

§ Orbital elements

Epoch: 2026-09-20T08:45:16.046784Z

Period
94.27 min
Inclination
43.0018°
Eccentricity
0.0001470
Mean motion
15.27581172 rev/d
Perigee alt
482.0 km
Apogee alt
484.1 km
Semi-major
6,861.2 km
B*
3.9823e-5
RAAN
291.3591°
Arg perigee
274.0379°
Mean anomaly
86.0305°
Rev number
14,404

§ Raw data

STARLINK-312741 59078U 24041E   26263.36476906  .00000834  00000+0  39823-4 0  99932 59078  43.0018 291.3591 0001470 274.0379  86.0305 15.27581172144045

JSON: /api/v1/satellites/59078 · /tle

For live sub-satellite position, see the globe view (requires WebGL).

§ Visibility from observer

Set your observer location to see the next 7 days of passes ≥ 10°. The values pass through the URL so the page stays shareable.

No JS? Fill the form by hand. The geolocation button needs JavaScript.